COSMOS 2464 (GLONASS)

Satellite information

Favourite Embed

Satellite Type and Status

PAYLOADIN ORBIT

Key statistics

Satellite COSMOS 2464 (GLONASS) at a glance.

Uptime

5536

Days in orbit

Revolutions

≈ 2.1

Per day

Orbit

MEO

Medium Earth Orbit

Inclination

63.9

Latest

Satellite identification and parameters

Extended collection of information and parameters for COSMOS 2464 (GLONASS).

Object identification

Identified? True

Debris? False

Object name: COSMOS 2464 (GLONASS)

International designator: 2010-041C

Object number (NORAD): 37139

Object ID (CCSDS): 37139

Country: COMMONWEALTH OF INDEPENDENT STATES (CIS)

Current information (Y/N): Y

RCS size: LARGE

Orbital parameters

Period: 675.742 minutes

Inclination: 63.9138 deg

SMA: 25508.268 km

Apoapsis: 19217.024 km

Periapsis: 19043.242 km

RAAN: 198.1897 deg

Eccentricy: 0.00340638

Argument of periapsis: 12.3256 deg

Mean anomaly: 170.4428 deg

Mean motion: 2.13098947 rev/day

Mean motion (dot): 0.00000016 rev/day2

B* drag term: 0.0 1/REarth

Two-line elements (TLE)

Creation date: Oct. 28, 2025, 7:11 p.m.

Reference frame: TEME

Reference center: EARTH

Epoch: Oct. 28, 2025, 4:18 p.m. UTC

TLE line 0: 0 COSMOS 2464 (GLONASS)

TLE line 1: 1 37139U 10041C 25301.67973568 .00000016 00000-0 00000-0 0 9998

TLE line 2: 2 37139 63.9138 198.1897 0034064 12.3256 170.4428 2.13098947117956

Live tracking on map

Real-time ground track for satellite COSMOS 2464 (GLONASS).

In-orbit conjunctions

There are no conjunctions computed for COSMOS 2464 (GLONASS), at the moment. Check back to stay up to date, as we update our databases every day.

Go to all conjunctions

Associated space launch

Glonass-M, also known as Uragan-M, are the second generation of Uragan satellite design used for GLONASS satellite navigation system. GLONASS is a Russian space-based navigation system comparable to the similar GPS and Galileo systems. This generation improves on accuracy, power consumption and design life. Each satellite weighs 1415 kg, is equipped with 12 L-band antennas, and has an operational lifetime of 7 years.

COSMOS 2464 (GLONASS) was lifted into orbit during the mission ‘Proton-M/DM-2 Enhanced | 3 x Glonass-M (Kosmos 2464, Kosmos 2465, Kosmos 2466)’, on board a Proton-M space rocket.

The launch took place on Sept. 2, 2010, 12:53 a.m. from 81/24 (81P).

For more information about the launch, click the button.

Launch to space Proton-M/DM-2 Enhanced | 3 x Glonass-M (Kosmos 2464, Kosmos 2465, Kosmos 2466)
Proton-M/DM-2 Enhanced | 3 x Glonass-M (Kosmos 2464, Kosmos 2465, Kosmos 2466)

Agency: N/A

Status: Launch Successful

Launch date: Sept. 2, 2010, 12:53 a.m. UTC

Rocket: Proton-M

Launch pad: 81/24 (81P)

Location: Baikonur Cosmodrome, Republic of Kazakhstan

...

Latest news about this satellite

There are no fresh news available about this satellite. Check back as we update our databases every day.


Newsletter sign-up

Weekly statistics, charts and insights to help you stay on top of the space industry.